CW6099 Weather Reports


Display with metric or nautical units.
time (UTC)temp
F
wind
direction
speed
MPH
gust
MPH
rain 1hr
in
rain 24hr
in
rain mn
in
humidity
%
barometer
mb
20260508045411 56 57 0.0 2.0 0.00 0.01 0.01 55 1011.1
20260508045324 56 57 0.0 2.0 0.00 0.01 0.01 55 1011.1
20260508044417 56 54 1.0 5.0 0.00 0.01 0.01 56 1011.0
20260508044309 56 206 3.0 5.0 0.00 0.01 0.01 56 1011.0
20260508043421 57 134 2.0 4.0 0.00 0.01 0.01 57 1011.0
20260508043349 57 194 3.0 4.0 0.00 0.01 0.01 57 1011.0
20260508042419 58 157 3.0 4.0 0.00 0.01 0.01 56 1011.1
20260508042315 58 161 2.0 5.0 0.00 0.01 0.01 54 1011.1
20260508041444 58 126 2.0 4.0 0.00 0.01 0.01 53 1011.2
20260508041319 58 150 2.0 4.0 0.00 0.01 0.01 54 1011.2
20260508040430 59 137 1.0 3.0 0.00 0.01 0.01 50 1011.1
20260508040321 59 98 1.0 3.0 0.00 0.01 0.01 50 1011.1
20260508035412 59 153 2.0 4.0 0.00 0.01 0.01 51 1011.2
20260508035345 59 135 2.0 4.0 0.00 0.01 0.01 52 1011.3
20260508034416 59 140 2.0 6.0 0.00 0.01 0.01 53 1011.2
20260508034329 59 159 1.0 6.0 0.00 0.01 0.01 55 1011.2
20260508033420 61 84 2.0 6.0 0.00 0.01 0.01 52 1011.3
20260508033337 61 67 3.0 6.0 0.00 0.01 0.01 52 1011.3
20260508032427 61 74 3.0 6.0 0.00 0.01 0.01 49 1011.2
20260508032337 61 90 4.0 8.0 0.00 0.01 0.01 49 1011.2
20260508031428 61 130 3.0 5.0 0.00 0.01 0.01 52 1011.1
20260508031340 61 78 3.0 7.0 0.00 0.01 0.01 52 1011.1
20260508030429 63 72 4.0 8.0 0.00 0.01 0.01 49 1011.0
20260508030319 63 55 4.0 8.0 0.00 0.01 0.01 46 1010.9
20260508025449 65 67 3.0 8.0 0.00 0.01 0.01 48 1011.0
20260508025339 65 174 3.0 9.0 0.00 0.01 0.01 45 1010.9
20260508024427 65 81 4.0 9.0 0.00 0.01 0.01 43 1010.8
20260508024340 65 84 4.0 12.0 0.00 0.01 0.01 43 1010.8
20260508023410 63 54 9.0 11.0 0.00 0.01 0.01 47 1010.7
20260508023343 63 63 8.0 11.0 0.00 0.01 0.01 47 1010.7
20260508022411 62 49 2.0 5.0 0.00 0.01 0.01 49 1010.7
20260508022328 62 35 2.0 5.0 0.00 0.01 0.01 49 1010.7
20260508021418 63 5 3.0 4.0 0.00 0.01 0.01 55 1010.6
20260508021330 63 11 2.0 5.0 0.00 0.01 0.01 52 1010.6
20260508020440 63 213 2.0 5.0 0.00 0.01 0.01 49 1010.4
20260508020310 63 204 3.0 5.0 0.00 0.01 0.01 53 1010.4
20260508015421 63 221 3.0 4.0 0.00 0.01 0.01 52 1010.3
20260508015312 63 234 3.0 4.0 0.00 0.01 0.01 52 1010.3
20260508014424 64 236 3.0 5.0 0.00 0.01 0.01 47 1010.2
20260508014320 64 241 3.0 5.0 0.00 0.01 0.01 47 1010.2
20260508013412 64 236 4.0 7.0 0.00 0.01 0.01 50 1010.1
20260508013323 64 235 4.0 7.0 0.00 0.01 0.01 51 1010.0
20260508012434 65 236 5.0 7.0 0.00 0.01 0.01 48 1010.0
20260508012325 65 234 5.0 6.0 0.00 0.01 0.01 48 1010.0
20260508011418 67 259 3.0 7.0 0.00 0.01 0.01 46 1009.9
20260508011310 67 247 3.0 7.0 0.00 0.01 0.01 45 1009.9
20260508010421 68 267 3.0 4.0 0.00 0.01 0.01 39 1009.9
20260508010314 68 273 3.0 4.0 0.00 0.01 0.01 40 1009.9
20260508005426 70 252 4.0 7.0 0.00 0.01 0.01 39 1009.8
20260508005338 70 254 4.0 7.0 0.00 0.01 0.01 41 1009.8
20260508004411 72 289 4.0 8.0 0.00 0.01 0.01 35 1009.8
20260508004324 72 271 4.0 8.0 0.00 0.01 0.01 35 1009.8
20260508003410 74 225 5.0 11.0 0.00 0.01 0.01 33 1009.8
20260508003324 74 236 5.0 11.0 0.00 0.01 0.01 33 1009.8
20260508002415 74 230 8.0 13.0 0.00 0.01 0.01 35 1009.8
20260508002328 74 225 7.0 13.0 0.00 0.01 0.01 35 1009.9
20260508001418 74 250 4.0 6.0 0.00 0.01 0.01 33 1009.9
20260508001327 74 258 4.0 6.0 0.00 0.01 0.01 33 1010.0
20260508000419 74 259 5.0 8.0 0.00 0.01 0.01 33 1010.0
20260508000314 74 271 4.0 8.0 0.00 0.01 0.01 32 1010.0
20260507235446 74 254 5.0 11.0 0.00 0.01 0.01 30 1009.9
20260507235317 75 199 7.0 11.0 0.00 0.01 0.01 30 1009.9
20260507234429 75 229 8.0 10.0 0.00 0.01 0.01 33 1010.0
20260507234322 75 221 8.0 10.0 0.00 0.01 0.01 33 1010.0
20260507233433 74 302 3.0 8.0 0.00 0.01 0.01 36 1010.0
20260507233327 74 301 2.0 4.0 0.00 0.01 0.01 37 1010.0
20260507232417 74 210 1.0 2.0 0.00 0.01 0.01 31 1010.0
20260507232310 74 252 1.0 2.0 0.00 0.01 0.01 31 1010.0
20260507231423 73 265 1.0 5.0 0.00 0.01 0.01 38 1010.1
20260507231339 73 265 2.0 5.0 0.00 0.01 0.01 38 1010.1
20260507230422 75 213 4.0 8.0 0.00 0.01 0.01 33 1010.0
20260507230313 75 209 4.0 8.0 0.00 0.01 0.01 33 1010.1
20260507225424 77 244 4.0 15.0 0.00 0.05 0.01 28 1010.2
20260507225329 77 248 5.0 15.0 0.00 0.05 0.01 26 1010.1
20260507224416 77 229 7.0 11.0 0.00 0.05 0.01 30 1010.1
20260507224330 77 209 8.0 11.0 0.00 0.05 0.01 29 1010.1
20260507223421 77 300 6.0 9.0 0.00 0.05 0.01 29 1010.3
20260507223313 78 290 6.0 13.0 0.00 0.05 0.01 28 1010.3
20260507222425 77 317 9.0 13.0 0.00 0.05 0.01 30 1010.3
20260507222322 77 292 10.0 12.0 0.00 0.05 0.01 30 1010.3
20260507221414 76 211 7.0 12.0 0.00 0.05 0.01 31 1010.3
20260507221327 76 227 8.0 15.0 0.00 0.05 0.01 31 1010.4
20260507220419 77 242 14.0 18.0 0.00 0.05 0.01 29 1010.4
20260507220312 77 233 14.0 18.0 0.00 0.05 0.01 29 1010.4
20260507215423 76 229 11.0 19.0 0.00 0.10 0.01 31 1010.5
20260507215315 76 242 10.0 19.0 0.00 0.10 0.01 31 1010.5
20260507214424 76 275 10.0 16.0 0.00 0.10 0.01 31 1010.6
20260507214320 76 228 10.0 15.0 0.00 0.10 0.01 30 1010.6
20260507213410 76 240 11.0 19.0 0.00 0.10 0.01 30 1010.8
20260507213323 76 250 11.0 20.0 0.00 0.10 0.01 30 1010.7
20260507212414 78 238 13.0 25.0 0.00 0.10 0.01 29 1010.8
20260507212326 78 229 14.0 25.0 0.00 0.10 0.01 29 1010.8
20260507211418 78 217 13.0 21.0 0.00 0.10 0.01 30 1010.9
20260507211311 78 249 9.0 20.0 0.00 0.10 0.01 30 1010.9
20260507210423 77 238 10.0 21.0 0.00 0.10 0.01 32 1011.1
20260507210320 77 219 9.0 21.0 0.00 0.10 0.01 31 1011.1
20260507205430 76 230 7.0 16.0 0.00 0.10 0.01 28 1011.2
20260507205323 76 271 8.0 16.0 0.00 0.10 0.01 30 1011.3
20260507204415 77 242 9.0 21.0 0.00 0.10 0.01 33 1011.3
20260507204328 77 236 9.0 21.0 0.00 0.10 0.01 32 1011.4
20260507203417 77 284 12.0 20.0 0.00 0.10 0.01 30 1011.5
20260507203311 77 213 12.0 20.0 0.00 0.10 0.01 30 1011.5
20260507202443 77 267 16.0 24.0 0.00 0.10 0.01 31 1011.6
20260507202313 77 229 13.0 24.0 0.00 0.10 0.01 32 1011.5
20260507201422 76 266 12.0 23.0 0.00 0.10 0.01 31 1011.8
20260507201316 76 250 9.0 16.0 0.00 0.10 0.01 31 1011.9
20260507200429 76 238 8.0 24.0 0.00 0.10 0.01 32 1011.8
20260507200320 76 285 9.0 24.0 0.00 0.10 0.01 31 1011.9
20260507195411 76 242 10.0 23.0 0.00 0.10 0.01 34 1012.0
20260507195345 76 236 10.0 23.0 0.00 0.10 0.01 31 1012.0
20260507194414 76 292 10.0 19.0 0.00 0.10 0.01 33 1012.1
20260507194328 76 257 12.0 20.0 0.00 0.10 0.01 31 1012.2
20260507193420 75 273 10.0 20.0 0.00 0.10 0.01 31 1012.3
20260507193317 75 234 11.0 20.0 0.00 0.10 0.01 33 1012.3
20260507192430 75 286 12.0 21.0 0.00 0.10 0.01 33 1012.4
20260507192321 75 277 12.0 21.0 0.00 0.10 0.01 33 1012.4
20260507191433 74 267 11.0 19.0 0.00 0.10 0.01 32 1012.6
20260507191324 75 292 11.0 19.0 0.00 0.10 0.01 33 1012.5
20260507190416 74 275 8.0 22.0 0.00 0.10 0.01 35 1012.6
20260507190329 74 256 9.0 22.0 0.00 0.10 0.01 31 1012.6
20260507185421 74 240 14.0 20.0 0.00 0.11 0.01 32 1012.8
20260507185314 74 271 11.0 20.0 0.00 0.11 0.01 33 1012.9
20260507184426 74 275 12.0 20.0 0.00 0.11 0.01 34 1013.0
20260507184322 74 271 10.0 20.0 0.00 0.11 0.01 35 1013.0
20260507183412 73 256 16.0 26.0 0.00 0.11 0.01 33 1013.1
20260507183325 73 275 17.0 26.0 0.00 0.11 0.01 33 1013.1
20260507182436 73 288 11.0 25.0 0.00 0.11 0.01 31 1013.1
20260507182329 73 242 15.0 25.0 0.00 0.11 0.01 31 1013.3
20260507181421 72 228 17.0 23.0 0.00 0.11 0.01 32 1013.4
20260507181313 72 255 16.0 23.0 0.00 0.11 0.01 33 1013.3
20260507180417 72 246 13.0 23.0 0.00 0.11 0.01 37 1013.3
20260507180314 72 249 14.0 23.0 0.00 0.11 0.01 33 1013.4
20260507175426 72 273 15.0 24.0 0.00 0.14 0.01 38 1013.4
20260507175338 72 265 16.0 24.0 0.00 0.14 0.01 36 1013.4
20260507174430 71 261 14.0 22.0 0.00 0.14 0.01 35 1013.5
20260507174319 71 250 12.0 22.0 0.00 0.14 0.01 35 1013.5
20260507173430 70 285 14.0 23.0 0.00 0.14 0.01 35 1013.7
20260507173324 71 256 15.0 23.0 0.00 0.14 0.01 36 1013.7
20260507172414 70 238 12.0 25.0 0.00 0.14 0.01 40 1013.8
20260507172327 70 272 13.0 25.0 0.00 0.14 0.01 41 1013.8
20260507171416 69 265 14.0 23.0 0.00 0.14 0.01 41 1014.0
20260507171311 69 287 13.0 23.0 0.00 0.14 0.01 41 1013.9
20260507170422 69 254 17.0 25.0 0.00 0.14 0.01 40 1014.0
20260507170335 69 229 15.0 25.0 0.00 0.14 0.01 41 1014.1
20260507165425 68 244 16.0 24.0 0.00 0.27 0.01 43 1014.1
20260507165314 67 242 16.0 24.0 0.00 0.27 0.01 43 1014.1
20260507164422 67 259 15.0 25.0 0.00 0.27 0.01 44 1014.3
20260507164314 66 242 15.0 25.0 0.00 0.27 0.01 47 1014.3
20260507163425 66 270 15.0 23.0 0.00 0.27 0.01 50 1014.3
20260507163318 66 277 15.0 23.0 0.00 0.27 0.01 49 1014.3
20260507162428 65 235 16.0 22.0 0.00 0.27 0.01 51 1014.4
20260507162323 65 232 16.0 22.0 0.00 0.27 0.01 51 1014.4
20260507161435 64 238 14.0 19.0 0.00 0.27 0.01 53 1014.4
20260507161327 64 266 15.0 22.0 0.00 0.27 0.01 53 1014.4
20260507160418 63 251 14.0 20.0 0.00 0.27 0.01 55 1014.5
20260507160331 63 232 14.0 20.0 0.00 0.27 0.01 55 1014.5
20260507155419 62 246 14.0 21.0 0.00 0.36 0.01 57 1014.5
20260507155312 62 235 14.0 21.0 0.00 0.36 0.01 57 1014.6
20260507154442 61 271 13.0 21.0 0.00 0.36 0.01 59 1014.6
20260507154313 61 246 14.0 21.0 0.00 0.36 0.01 59 1014.6
20260507153425 60 242 10.0 19.0 0.00 0.36 0.01 66 1014.6
20260507153323 60 266 10.0 20.0 0.00 0.36 0.01 66 1014.7
20260507152414 58 263 14.0 20.0 0.00 0.36 0.01 62 1014.7
20260507152347 58 259 14.0 20.0 0.00 0.36 0.01 64 1014.7
20260507151419 57 239 14.0 18.0 0.00 0.36 0.01 66 1014.8
20260507151311 57 246 13.0 18.0 0.00 0.36 0.01 68 1014.7
20260507150423 55 271 12.0 19.0 0.01 0.36 0.01 73 1014.7
20260507150316 55 250 14.0 19.0 0.01 0.36 0.01 73 1014.7
20260507145428 54 233 10.0 19.0 0.01 0.36 0.01 77 1014.8
20260507145324 54 255 11.0 19.0 0.01 0.40 0.01 77 1014.8
20260507144415 52 235 12.0 19.0 0.01 0.40 0.01 77 1014.8
20260507144348 52 255 14.0 19.0 0.01 0.40 0.01 77 1014.8
20260507143419 51 248 12.0 22.0 0.01 0.40 0.01 79 1014.8
20260507143312 51 236 13.0 22.0 0.01 0.40 0.01 79 1014.8
20260507142423 50 244 15.0 20.0 0.01 0.40 0.01 80 1014.8
20260507142317 50 217 16.0 20.0 0.01 0.40 0.01 80 1014.8
20260507141428 49 244 16.0 21.0 0.01 0.40 0.01 82 1014.8
20260507141320 49 240 16.0 21.0 0.01 0.40 0.01 82 1014.7
20260507140415 48 211 13.0 19.0 0.00 0.39 0.00 83 1014.8
20260507140349 48 271 12.0 19.0 0.00 0.39 0.00 84 1014.8
20260507135417 47 226 12.0 20.0 0.00 0.39 0.00 84 1014.7
20260507135328 47 271 13.0 20.0 0.00 0.39 0.00 84 1014.7
20260507134418 45 249 14.0 22.0 0.00 0.39 0.00 85 1014.9
20260507134311 45 232 15.0 22.0 0.00 0.39 0.00 85 1014.9
20260507133423 44 240 17.0 22.0 0.00 0.39 0.00 87 1014.8
20260507133316 44 246 16.0 21.0 0.00 0.39 0.00 87 1014.8
20260507132427 42 243 14.0 20.0 0.00 0.39 0.00 89 1014.8
20260507132323 42 227 14.0 20.0 0.00 0.39 0.00 89 1014.7
20260507131414 41 237 14.0 21.0 0.00 0.39 0.00 89 1014.7
20260507131327 41 235 15.0 21.0 0.00 0.39 0.00 89 1014.7
20260507130438 40 257 12.0 18.0 0.00 0.39 0.00 91 1014.7
20260507130329 40 226 12.0 18.0 0.00 0.39 0.00 91 1014.7
20260507125419 39 257 14.0 19.0 0.00 0.39 0.00 92 1014.6
20260507125310 39 262 14.0 19.0 0.00 0.39 0.00 92 1014.6
20260507124419 38 240 12.0 16.0 0.00 0.39 0.00 93 1014.7
20260507124312 38 224 12.0 17.0 0.00 0.39 0.00 93 1014.7
20260507123423 37 261 11.0 18.0 0.00 0.39 0.00 94 1014.7
20260507123320 37 256 12.0 18.0 0.00 0.39 0.00 94 1014.7
20260507122410 36 261 12.0 17.0 0.00 0.39 0.00 94 1014.7
20260507122343 36 265 12.0 16.0 0.00 0.39 0.00 94 1014.6
20260507121433 36 234 12.0 17.0 0.00 0.39 0.00 95 1014.7
20260507121324 36 221 12.0 17.0 0.00 0.39 0.00 95 1014.7
20260507120416 35 247 11.0 16.0 0.00 0.39 0.00 95 1014.8
20260507120328 35 234 12.0 16.0 0.00 0.39 0.00 95 1014.8
20260507115418 35 250 10.0 16.0 0.00 0.39 0.00 95 1014.8
20260507115309 35 260 10.0 16.0 0.00 0.39 0.00 96 1014.8
20260507114439 34 252 11.0 16.0 0.00 0.39 0.00 96 1014.8
20260507114313 34 221 11.0 16.0 0.00 0.39 0.00 96 1014.8
20260507113425 34 234 11.0 15.0 0.00 0.39 0.00 95 1014.9
20260507113319 34 236 11.0 15.0 0.00 0.39 0.00 95 1014.9
20260507112409 34 254 11.0 17.0 0.00 0.39 0.00 95 1015.1
20260507112322 34 250 12.0 17.0 0.00 0.39 0.00 95 1015.1
20260507111413 35 224 12.0 16.0 0.00 0.39 0.00 95 1015.1
20260507111326 35 237 11.0 16.0 0.00 0.39 0.00 95 1015.1
20260507110418 35 233 12.0 18.0 0.00 0.39 0.00 95 1015.2
20260507110314 35 245 13.0 18.0 0.00 0.39 0.00 95 1015.3
20260507105425 35 222 12.0 15.0 0.00 0.40 0.00 95 1015.2
20260507105338 35 246 11.0 18.0 0.00 0.40 0.00 95 1015.2
20260507104427 35 236 14.0 19.0 0.00 0.40 0.00 96 1015.5
20260507104319 35 236 13.0 19.0 0.00 0.40 0.00 96 1015.5
20260507103412 35 236 13.0 17.0 0.00 0.40 0.00 96 1015.5
20260507103324 35 236 13.0 17.0 0.00 0.40 0.00 96 1015.5
20260507102413 35 235 12.0 15.0 0.00 0.40 0.00 96 1015.6
20260507102324 35 232 12.0 15.0 0.00 0.40 0.00 96 1015.6
20260507101436 35 237 12.0 15.0 0.00 0.40 0.00 96 1015.6
20260507101312 35 225 12.0 15.0 0.00 0.40 0.00 96 1015.7
20260507100423 35 234 11.0 18.0 0.00 0.40 0.00 97 1015.8
20260507100336 35 232 13.0 18.0 0.00 0.40 0.00 97 1015.8
20260507095423 34 225 13.0 16.0 0.00 0.46 0.00 97 1015.8
20260507095315 34 246 11.0 14.0 0.00 0.46 0.00 97 1015.9
20260507094447 34 232 9.0 14.0 0.00 0.46 0.00 97 1016.1
20260507094319 34 240 9.0 14.0 0.00 0.46 0.00 97 1016.1
20260507093411 34 250 10.0 15.0 0.00 0.46 0.00 97 1016.1
20260507093324 34 232 10.0 15.0 0.00 0.46 0.00 97 1016.1
20260507092416 34 237 11.0 16.0 0.00 0.46 0.00 98 1016.1
20260507092313 34 255 12.0 16.0 0.00 0.46 0.00 98 1016.1
20260507091424 34 244 11.0 16.0 0.00 0.46 0.00 97 1016.3
20260507091315 34 244 11.0 16.0 0.00 0.46 0.00 97 1016.3
20260507090427 34 229 12.0 18.0 0.00 0.46 0.00 97 1016.4
20260507090339 34 232 12.0 19.0 0.00 0.46 0.00 97 1016.5
20260507085411 34 236 14.0 18.0 0.00 0.50 0.00 97 1016.7
20260507085322 34 230 14.0 18.0 0.00 0.50 0.00 97 1016.6
20260507084415 34 229 15.0 19.0 0.00 0.50 0.00 97 1016.7
20260507084325 34 239 15.0 18.0 0.00 0.50 0.00 97 1016.7
20260507083416 34 230 14.0 18.0 0.00 0.50 0.00 97 1016.7
20260507083313 34 226 15.0 18.0 0.00 0.50 0.00 97 1016.7
20260507082444 35 228 13.0 17.0 0.00 0.50 0.00 97 1016.7
20260507082318 35 228 13.0 17.0 0.00 0.50 0.00 97 1016.8
20260507081409 35 217 12.0 17.0 0.00 0.50 0.00 97 1016.8
20260507081322 35 235 12.0 18.0 0.00 0.50 0.00 97 1016.9
20260507080414 35 229 13.0 19.0 0.00 0.50 0.00 97 1017.1
20260507080347 35 234 14.0 19.0 0.00 0.50 0.00 97 1017.1
20260507075417 35 223 13.0 19.0 0.00 0.52 0.00 98 1017.3
20260507075309 35 231 14.0 19.0 0.00 0.52 0.00 98 1017.3
20260507074420 34 229 15.0 18.0 0.00 0.52 0.00 98 1017.3
20260507074318 34 229 14.0 18.0 0.00 0.52 0.00 98 1017.3
20260507073428 34 234 13.0 16.0 0.00 0.52 0.00 98 1017.4
20260507073322 34 229 13.0 16.0 0.00 0.52 0.00 98 1017.5
20260507072433 34 235 13.0 16.0 0.00 0.52 0.00 97 1017.7
20260507072345 34 243 13.0 16.0 0.00 0.52 0.00 97 1017.7
20260507071416 34 229 12.0 14.0 0.00 0.52 0.00 97 1017.9
20260507071349 34 227 12.0 14.0 0.00 0.52 0.00 97 1017.9
20260507070418 34 233 11.0 16.0 0.00 0.52 0.00 97 1018.0
20260507070311 34 219 11.0 16.0 0.00 0.52 0.00 97 1018.0
20260507065423 35 242 11.0 15.0 0.00 0.55 0.00 97 1018.1
20260507065316 35 230 12.0 15.0 0.00 0.55 0.00 97 1018.1
20260507064428 35 221 11.0 16.0 0.00 0.55 0.00 97 1018.1
20260507064319 35 227 11.0 16.0 0.00 0.55 0.00 97 1018.1
20260507063431 35 242 12.0 17.0 0.00 0.55 0.00 97 1018.3
20260507063323 35 241 13.0 17.0 0.00 0.55 0.00 97 1018.3
20260507062413 35 243 12.0 15.0 0.00 0.55 0.00 97 1018.4
20260507062326 35 230 13.0 15.0 0.00 0.55 0.00 97 1018.4
20260507061417 35 231 10.0 14.0 0.00 0.55 0.00 97 1018.6
20260507061310 35 234 10.0 14.0 0.00 0.55 0.00 97 1018.6
20260507060422 36 226 12.0 18.0 0.00 0.55 0.00 97 1018.5
20260507060318 36 223 12.0 18.0 0.00 0.55 0.00 97 1018.5
20260507055410 36 234 10.0 14.0 0.00 0.56 0.55 97 1018.6
20260507055322 36 214 11.0 14.0 0.00 0.56 0.55 97 1018.5
20260507054415 36 222 10.0 15.0 0.00 0.56 0.55 97 1018.5
20260507054328 36 218 10.0 15.0 0.00 0.56 0.55 97 1018.6
20260507053438 36 218 10.0 13.0 0.00 0.56 0.55 97 1018.6
20260507053311 36 211 10.0 13.0 0.00 0.56 0.55 97 1018.6
20260507052443 36 211 10.0 13.0 0.00 0.56 0.55 97 1018.8
20260507052318 36 228 9.0 11.0 0.00 0.56 0.55 97 1018.8
20260507051410 36 230 9.0 15.0 0.00 0.56 0.55 97 1018.9
20260507051323 36 219 9.0 15.0 0.00 0.56 0.55 97 1018.8
20260507050435 36 242 10.0 15.0 0.00 0.56 0.55 97 1018.8
20260507050325 36 222 10.0 15.0 0.00 0.56 0.55 97 1018.8